Weather History for Athens, OH

Change the Weather History Date:

Wednesday, December 5, 2012

  Actual Average (KPKB) Record (KPKB)
Temperature  
Mean Temperature 40 °F 38 °F  
Max Temperature 48 °F 46 °F 74 °F (2001)
Min Temperature 31 °F 30 °F 14 °F (1991)
Degree Days  
Heating Degree Days 26 27  
Month to date heating degree days 132  
Since 1 July heating degree days 1117  
Moisture  
Dew Point 34 °F    
Average Humidity 77    
Maximum Humidity 99    
Minimum Humidity 42    
Precipitation  
Precipitation 0.00 in 0.11 in 0.58 in (2003)
Month to date precipitation 0.53  
Year to date precipitation 38.62  
Sea Level Pressure  
Sea Level Pressure 30.28 in    
Wind  
Wind Speed 2 mph (NNW)    
Max Wind Speed 9 mph    
Max Gust Speed -    
Visibility 8 miles    
Events Fog    
T = Trace of Precipitation, MM = Missing Value Source: NWS Daily Summary

Daily Weather History Graph

Daily Weather History Graph

Search for Another Location

Airport:

Trip Planner

Search our weather history database for the weather conditions in past years. The results will help you decide how hot, cold, wet, or windy it might be!

Date:

Astronomy

Dec. 05, 2012 Rise Set
Actual Time 7:33 AM EST 5:05 PM EST
Civil Twilight 7:03 AM EST 5:35 PM EST
Nautical Twilight 6:30 AM EST 6:09 PM EST
Astronomical Twilight 5:58 AM EST 6:41 PM EST
Moon 11:52 PM EST (12/5) 11:58 AM EST (12/5)
Length of Visible Light 10h 31m
Length of Day
9h 32m
Waning Gibbous, 60% of the Moon is Illuminated
Dec 5
Waning Gibbous
Dec 6
Last Quarter
Dec 13
New
Dec 20
First Quarter
Dec 28
Full

Hourly Weather History & Observations

Time (EST) Temp. Windchill Dew Point Humidity Pressure Visibility Wind Dir Wind Speed Gust Speed Precip Events Conditions
12:15 AM 43.3 °F - 41.2 °F 92% 30.19 in 10.0 mi Calm Calm - N/A   Mostly Cloudy
12:35 AM 42.8 °F - 41.0 °F 93% 30.20 in 10.0 mi Calm Calm - N/A   Clear
12:55 AM 41.9 °F - 40.5 °F 95% 30.19 in 10.0 mi Calm Calm - N/A   Clear
1:15 AM 41.4 °F - 40.1 °F 95% 30.20 in 10.0 mi Calm Calm - N/A   Clear
1:35 AM 41.0 °F - 39.9 °F 96% 30.20 in 10.0 mi Calm Calm - N/A   Clear
1:55 AM 41.0 °F - 39.7 °F 95% 30.20 in 10.0 mi Calm Calm - N/A   Clear
2:15 AM 41.0 °F - 39.6 °F 95% 30.21 in 10.0 mi Calm Calm - N/A   Clear
2:55 AM 40.6 °F - 39.6 °F 96% 30.23 in 10.0 mi Calm Calm - N/A   Clear
3:15 AM 41.0 °F - 39.9 °F 96% 30.23 in 10.0 mi Calm Calm - N/A   Clear
3:35 AM 39.9 °F - 38.7 °F 95% 30.23 in 10.0 mi Calm Calm - N/A   Clear
3:55 AM 39.2 °F - 37.9 °F 95% 30.23 in 4.0 mi Calm Calm - N/A   Clear
4:15 AM 39.2 °F - 37.9 °F 95% 30.23 in 10.0 mi Calm Calm - N/A   Clear
4:35 AM 38.8 °F - 37.8 °F 96% 30.23 in 7.0 mi Calm Calm - N/A   Clear
4:55 AM 38.1 °F - 37.0 °F 96% 30.24 in 7.0 mi Calm Calm - N/A   Clear
5:15 AM 37.0 °F - 36.1 °F 97% 30.24 in 2.5 mi Calm Calm - N/A   Clear
5:35 AM 36.7 °F - 35.8 °F 97% 30.24 in 0.8 mi Calm Calm - N/A   Mist
5:55 AM 35.8 °F - 34.9 °F 97% 30.25 in 0.5 mi Calm Calm - N/A Fog Fog
6:15 AM 33.8 °F - 32.9 °F 96% 30.25 in 0.8 mi Calm Calm - N/A   Mist
6:35 AM 33.1 °F - 32.2 °F 96% 30.25 in 0.5 mi Calm Calm - N/A Fog Fog
6:55 AM 32.2 °F 28.9 °F 31.8 °F 99% 30.26 in 0.2 mi West 3.5 mph - N/A Fog Fog
7:15 AM 32.0 °F - 31.8 °F 99% 30.27 in 0.5 mi Calm Calm - N/A Fog Fog
7:35 AM 32.0 °F - 31.3 °F 97% 30.27 in 0.5 mi Calm Calm - N/A Fog Fog
7:55 AM 31.6 °F - 31.1 °F 98% 30.29 in 0.8 mi Calm Calm - N/A   Mist
9:35 AM 40.3 °F - 39.6 °F 97% 30.31 in 7.0 mi Calm Calm - N/A   Clear
9:55 AM 42.4 °F 38.1 °F 41.4 °F 96% 30.31 in 10.0 mi NNW 6.9 mph - N/A   Clear
10:15 AM 42.3 °F 40.5 °F 39.2 °F 89% 30.32 in 10.0 mi NNW 3.5 mph - N/A   Clear
10:35 AM 42.6 °F 40.9 °F 36.5 °F 79% 30.32 in 10.0 mi WNW 3.5 mph - N/A   Clear
10:55 AM 43.7 °F - 36.9 °F 77% 30.32 in 10.0 mi Calm Calm - N/A   Clear
11:15 AM 44.4 °F - 36.9 °F 75% 30.32 in 10.0 mi Calm Calm - N/A   Clear
11:35 AM 44.8 °F - 36.3 °F 72% 30.32 in 10.0 mi Calm Calm - N/A   Scattered Clouds
11:55 AM 46.0 °F 43.1 °F 35.1 °F 66% 30.31 in 10.0 mi NNW 5.8 mph - N/A   Clear
12:15 PM 46.4 °F - 33.6 °F 61% 30.31 in 10.0 mi Calm Calm - N/A   Clear
12:35 PM 47.3 °F - 32.0 °F 55% 30.30 in 10.0 mi North 6.9 mph - N/A   Clear
12:55 PM 47.7 °F - 31.1 °F 53% 30.30 in 10.0 mi NW 8.1 mph - N/A   Clear
1:15 PM 48.2 °F - 29.7 °F 49% 30.29 in 10.0 mi NW 5.8 mph - N/A   Clear
1:35 PM 48.4 °F - 28.0 °F 45% 30.29 in 10.0 mi North 5.8 mph - N/A   Clear
1:55 PM 48.4 °F - 26.2 °F 42% 30.28 in 10.0 mi NNW 6.9 mph - N/A   Clear
2:15 PM 48.2 °F - 27.5 °F 45% 30.29 in 10.0 mi NW 9.2 mph - N/A   Clear
2:35 PM 48.2 °F - 28.6 °F 47% 30.28 in 10.0 mi NW 8.1 mph - N/A   Clear
2:55 PM 48.2 °F - 30.4 °F 50% 30.28 in 10.0 mi WNW 5.8 mph - N/A   Clear
3:15 PM 47.7 °F - 31.1 °F 53% 30.29 in 10.0 mi NNW 8.1 mph - N/A   Clear
3:35 PM 46.9 °F - 30.9 °F 54% 30.29 in 10.0 mi NNE 6.9 mph - N/A   Clear
3:55 PM 46.4 °F 42.9 °F 30.0 °F 53% 30.29 in 10.0 mi North 6.9 mph - N/A   Clear
4:15 PM 45.5 °F 41.8 °F 29.8 °F 54% 30.30 in 10.0 mi North 6.9 mph - N/A   Clear
4:35 PM 44.1 °F 40.8 °F 28.2 °F 54% 30.31 in 10.0 mi North 5.8 mph - N/A   Clear
4:55 PM 42.8 °F 39.3 °F 28.8 °F 58% 30.31 in 10.0 mi North 5.8 mph - N/A   Clear
5:15 PM 41.7 °F 37.3 °F 29.1 °F 61% 30.31 in 10.0 mi North 6.9 mph - N/A   Clear
5:35 PM 40.6 °F 37.5 °F 29.3 °F 64% 30.31 in 10.0 mi North 4.6 mph - N/A   Clear
5:55 PM 39.6 °F 36.3 °F 29.3 °F 67% 30.31 in 10.0 mi North 4.6 mph - N/A   Clear
6:15 PM 39.2 °F 35.9 °F 29.1 °F 67% 30.32 in 10.0 mi North 4.6 mph - N/A   Clear
6:35 PM 38.3 °F 35.9 °F 28.8 °F 69% 30.32 in 10.0 mi North 3.5 mph - N/A   Clear
6:55 PM 37.4 °F 33.8 °F 28.4 °F 70% 30.33 in 10.0 mi North 4.6 mph - N/A   Clear
7:15 PM 36.7 °F 32.9 °F 28.4 °F 72% 30.33 in 10.0 mi North 4.6 mph - N/A   Clear
7:35 PM 36.5 °F 31.0 °F 28.4 °F 72% 30.33 in 10.0 mi NNE 6.9 mph - N/A   Clear
7:55 PM 35.2 °F 30.3 °F 28.2 °F 76% 30.33 in 10.0 mi NE 5.8 mph - N/A   Clear